Private Wetterstation Wechselburg
Wetterdaten: Sonntag, 26.09.2021
Datum Zeit Temp. +2m Bodentemp. Temp.+5cm Temp. Wind Windchill X Diff Temp. Feuchte +2m Feuchte +5cm Luftdruck Regen Wind Richtung Richtung Sonnenschein Taupunkt Windchill Windben
26.09.2021 00:00 12,0 C 17,7 C 12,1 C 11,8 C 11,5 C 0,0 C 87 % 92 % 1015,9 hPa 0,0 l/m 0,0 km/h (0 Bft) SW 225 0 min 9,9 C 11,5 C 0,0 km/h (0 Bft)
26.09.2021 00:05 12,1 C 17,7 C 12,1 C 11,9 C 11,5 C 0,0 C 87 % 92 % 1015,9 hPa 0,0 l/m 0,0 km/h (0 Bft) SW 225 0 min 10,0 C 11,5 C 0,0 km/h (0 Bft)
26.09.2021 00:10 12,0 C 17,7 C 12,0 C 11,8 C 11,5 C 0,0 C 87 % 92 % 1015,9 hPa 0,0 l/m 0,0 km/h (0 Bft) SW 225 0 min 9,9 C 11,5 C 0,0 km/h (0 Bft)
26.09.2021 00:15 11,9 C 17,6 C 12,0 C 11,7 C 11,4 C 0,0 C 87 % 92 % 1015,8 hPa 0,0 l/m 0,0 km/h (0 Bft) SW 225 0 min 9,8 C 11,4 C 0,0 km/h (0 Bft)
26.09.2021 00:20 11,9 C 17,6 C 11,9 C 11,7 C 11,4 C 0,0 C 87 % 92 % 1015,8 hPa 0,0 l/m 0,0 km/h (0 Bft) SW 225 0 min 9,8 C 11,4 C 0,0 km/h (0 Bft)
26.09.2021 00:25 11,7 C 17,6 C 11,8 C 11,5 C 11,2 C 0,0 C 87 % 92 % 1015,8 hPa 0,0 l/m 0,0 km/h (0 Bft) SW 225 0 min 9,6 C 11,2 C 0,0 km/h (0 Bft)
26.09.2021 00:30 11,7 C 17,6 C 11,8 C 11,5 C 11,1 C 0,0 C 87 % 92 % 1015,8 hPa 0,0 l/m 0,0 km/h (0 Bft) SW 225 0 min 9,6 C 11,1 C 0,0 km/h (0 Bft)
26.09.2021 00:35 11,6 C 17,6 C 11,7 C 11,4 C 10,9 C 0,0 C 87 % 92 % 1015,9 hPa 0,0 l/m 0,0 km/h (0 Bft) SW 225 0 min 9,5 C 10,9 C 0,0 km/h (0 Bft)
26.09.2021 00:40 11,5 C 17,6 C 11,6 C 11,3 C 10,9 C 0,0 C 88 % 92 % 1015,9 hPa 0,0 l/m 0,0 km/h (0 Bft) SW 225 0 min 9,6 C 10,9 C 0,0 km/h (0 Bft)
26.09.2021 00:45 11,5 C 17,5 C 11,6 C 11,3 C 10,8 C 0,0 C 88 % 92 % 1015,9 hPa 0,0 l/m 0,0 km/h (0 Bft) SW 225 0 min 9,6 C 10,8 C 0,0 km/h (0 Bft)
26.09.2021 00:50 11,4 C 17,5 C 11,5 C 11,2 C 10,8 C 0,0 C 88 % 92 % 1015,9 hPa 0,0 l/m 0,0 km/h (0 Bft) SW 225 0 min 9,5 C 10,8 C 0,0 km/h (0 Bft)
26.09.2021 00:55 11,3 C 17,5 C 11,5 C 11,1 C 10,8 C 0,0 C 88 % 92 % 1015,7 hPa 0,0 l/m 0,0 km/h (0 Bft) SW 225 0 min 9,4 C 10,8 C 0,0 km/h (0 Bft)
26.09.2021 01:00 11,2 C 17,5 C 11,5 C 11,1 C 10,8 C 0,0 C 88 % 92 % 1015,7 hPa 0,0 l/m 0,0 km/h (0 Bft) SW 225 0 min 9,3 C 10,8 C 0,0 km/h (0 Bft)
26.09.2021 01:05 11,2 C 17,5 C 11,4 C 11,1 C 10,8 C 0,0 C 88 % 92 % 1015,7 hPa 0,0 l/m 0,0 km/h (0 Bft) SW 225 0 min 9,3 C 10,8 C 0,0 km/h (0 Bft)
26.09.2021 01:10 11,1 C 17,5 C 11,4 C 11,0 C 10,8 C 0,0 C 88 % 92 % 1015,7 hPa 0,0 l/m 0,0 km/h (0 Bft) SW 225 0 min 9,2 C 10,8 C 0,0 km/h (0 Bft)
26.09.2021 01:15 11,1 C 17,5 C 11,4 C 11,0 C 10,8 C 0,0 C 88 % 92 % 1015,8 hPa 0,0 l/m 0,0 km/h (0 Bft) SW 225 0 min 9,2 C 10,8 C 0,0 km/h (0 Bft)
26.09.2021 01:20 11,1 C 17,5 C 11,4 C 11,0 C 10,8 C 0,0 C 88 % 92 % 1015,8 hPa 0,0 l/m 0,0 km/h (0 Bft) SW 225 0 min 9,2 C 10,8 C 0,0 km/h (0 Bft)
26.09.2021 01:25 11,0 C 17,5 C 11,3 C 10,9 C 10,7 C 0,0 C 88 % 92 % 1015,8 hPa 0,0 l/m 0,0 km/h (0 Bft) SW 225 0 min 9,1 C 10,7 C 0,0 km/h (0 Bft)
26.09.2021 01:30 10,9 C 17,5 C 11,3 C 10,8 C 10,6 C 0,0 C 88 % 92 % 1015,8 hPa 0,0 l/m 0,0 km/h (0 Bft) SW 225 0 min 9,0 C 10,6 C 0,0 km/h (0 Bft)
26.09.2021 01:35 10,8 C 17,4 C 11,1 C 10,6 C 10,3 C 0,0 C 88 % 92 % 1016,1 hPa 0,0 l/m 0,0 km/h (0 Bft) SW 225 0 min 8,9 C 10,3 C 0,0 km/h (0 Bft)
26.09.2021 01:40 10,8 C 17,4 C 11,1 C 10,7 C 10,4 C 0,0 C 88 % 92 % 1016,1 hPa 0,0 l/m 0,0 km/h (0 Bft) SW 225 0 min 8,9 C 10,4 C 0,0 km/h (0 Bft)
26.09.2021 01:45 10,7 C 17,4 C 11,1 C 10,6 C 10,4 C 0,0 C 88 % 93 % 1016,1 hPa 0,0 l/m 0,0 km/h (0 Bft) SW 225 0 min 8,8 C 10,4 C 0,0 km/h (0 Bft)
26.09.2021 01:50 10,6 C 17,4 C 11,1 C 10,6 C 10,5 C 0,0 C 88 % 93 % 1016,1 hPa 0,0 l/m 0,0 km/h (0 Bft) SW 225 0 min 8,7 C 10,5 C 0,0 km/h (0 Bft)
26.09.2021 01:55 10,7 C 17,4 C 11,0 C 10,7 C 10,6 C 0,0 C 88 % 93 % 1015,6 hPa 0,0 l/m 0,0 km/h (0 Bft) SW 225 0 min 8,8 C 10,6 C 0,0 km/h (0 Bft)
26.09.2021 02:00 10,5 C 17,4 C 11,1 C 10,5 C 10,4 C 0,0 C 88 % 93 % 1015,6 hPa 0,0 l/m 0,0 km/h (0 Bft) SW 225 0 min 8,6 C 10,4 C 0,0 km/h (0 Bft)
26.09.2021 02:05 10,5 C 17,4 C 10,9 C 10,4 C 10,1 C 0,0 C 88 % 92 % 1015,6 hPa 0,0 l/m 0,0 km/h (0 Bft) SW 225 0 min 8,6 C 10,1 C 0,0 km/h (0 Bft)
26.09.2021 02:10 10,5 C 17,4 C 10,8 C 10,3 C 10,0 C 0,0 C 88 % 92 % 1015,6 hPa 0,0 l/m 0,0 km/h (0 Bft) SW 225 0 min 8,6 C 10,0 C 0,0 km/h (0 Bft)
26.09.2021 02:15 10,3 C 17,3 C 10,7 C 10,2 C 10,0 C 0,0 C 88 % 92 % 1015,9 hPa 0,0 l/m 0,0 km/h (0 Bft) SW 225 0 min 8,4 C 10,0 C 0,0 km/h (0 Bft)
26.09.2021 02:20 10,3 C 17,3 C 10,7 C 10,2 C 10,0 C 0,0 C 88 % 92 % 1015,9 hPa 0,0 l/m 0,0 km/h (0 Bft) SW 225 0 min 8,4 C 10,0 C 0,0 km/h (0 Bft)
26.09.2021 02:25 10,3 C 17,3 C 10,7 C 10,2 C 10,1 C 0,0 C 88 % 93 % 1015,9 hPa 0,0 l/m 0,0 km/h (0 Bft) SW 225 0 min 8,4 C 10,1 C 0,0 km/h (0 Bft)
26.09.2021 02:30 10,3 C 17,3 C 10,7 C 10,2 C 10,1 C 0,0 C 88 % 93 % 1015,9 hPa 0,0 l/m 0,0 km/h (0 Bft) SW 225 0 min 8,4 C 10,1 C 0,0 km/h (0 Bft)
26.09.2021 02:35 10,1 C 17,3 C 10,7 C 10,1 C 10,0 C 0,0 C 88 % 93 % 1016,1 hPa 0,0 l/m 0,0 km/h (0 Bft) SW 225 0 min 8,2 C 10,0 C 0,0 km/h (0 Bft)
26.09.2021 02:40 10,0 C 17,3 C 10,5 C 10,0 C 9,9 C 0,0 C 88 % 93 % 1016,1 hPa 0,0 l/m 0,0 km/h (0 Bft) SW 225 0 min 8,1 C 9,9 C 0,0 km/h (0 Bft)
26.09.2021 02:45 10,0 C 17,3 C 10,5 C 9,9 C 9,8 C 0,0 C 88 % 93 % 1016,1 hPa 0,0 l/m 0,0 km/h (0 Bft) SW 225 0 min 8,1 C 9,8 C 0,0 km/h (0 Bft)
26.09.2021 02:50 9,9 C 17,2 C 10,5 C 9,9 C 9,9 C 0,0 C 88 % 93 % 1016,1 hPa 0,0 l/m 0,0 km/h (0 Bft) SW 225 0 min 8,0 C 9,9 C 0,0 km/h (0 Bft)
26.09.2021 02:55 9,9 C 17,2 C 10,5 C 10,1 C 10,1 C 0,2 C 88 % 93 % 1016,0 hPa 0,0 l/m 0,0 km/h (0 Bft) SW 225 0 min 8,0 C 10,1 C 0,0 km/h (0 Bft)
26.09.2021 03:00 9,9 C 17,2 C 10,5 C 10,0 C 10,0 C 0,1 C 88 % 93 % 1016,0 hPa 0,0 l/m 0,0 km/h (0 Bft) SW 225 0 min 8,0 C 10,0 C 0,0 km/h (0 Bft)
26.09.2021 03:05 9,9 C 17,2 C 10,5 C 9,9 C 9,9 C 0,0 C 88 % 93 % 1016,0 hPa 0,0 l/m 0,0 km/h (0 Bft) SW 225 0 min 8,0 C 9,9 C 0,0 km/h (0 Bft)
26.09.2021 03:10 9,7 C 17,2 C 10,4 C 9,9 C 9,9 C 0,2 C 88 % 93 % 1016,0 hPa 0,0 l/m 0,0 km/h (0 Bft) SW 225 0 min 7,8 C 9,9 C 0,0 km/h (0 Bft)
26.09.2021 03:15 9,7 C 17,2 C 10,4 C 9,9 C 9,9 C 0,2 C 88 % 93 % 1015,8 hPa 0,0 l/m 0,0 km/h (0 Bft) SW 225 0 min 7,8 C 9,9 C 0,0 km/h (0 Bft)
26.09.2021 03:20 9,6 C 17,2 C 10,4 C 9,8 C 9,8 C 0,2 C 88 % 93 % 1015,8 hPa 0,0 l/m 0,0 km/h (0 Bft) SW 225 0 min 7,7 C 9,8 C 0,0 km/h (0 Bft)
26.09.2021 03:25 9,7 C 17,1 C 10,3 C 9,7 C 9,6 C 0,0 C 88 % 93 % 1015,8 hPa 0,0 l/m 0,0 km/h (0 Bft) SW 225 0 min 7,8 C 9,6 C 0,0 km/h (0 Bft)
26.09.2021 03:30 9,6 C 17,1 C 10,2 C 9,5 C 9,3 C 0,0 C 88 % 93 % 1015,8 hPa 0,0 l/m 0,0 km/h (0 Bft) SW 225 0 min 7,7 C 9,3 C 0,0 km/h (0 Bft)
26.09.2021 03:35 9,4 C 17,1 C 10,1 C 9,4 C 9,3 C 0,0 C 88 % 93 % 1016,0 hPa 0,0 l/m 0,0 km/h (0 Bft) SW 225 0 min 7,5 C 9,3 C 0,0 km/h (0 Bft)
26.09.2021 03:40 9,5 C 17,1 C 10,1 C 9,4 C 9,3 C 0,0 C 88 % 93 % 1016,0 hPa 0,0 l/m 0,0 km/h (0 Bft) SW 225 0 min 7,6 C 9,3 C 0,0 km/h (0 Bft)
26.09.2021 03:45 9,3 C 17,1 C 10,0 C 9,3 C 9,3 C 0,0 C 87 % 93 % 1016,0 hPa 0,0 l/m 0,0 km/h (0 Bft) SW 225 0 min 7,2 C 9,3 C 0,0 km/h (0 Bft)
26.09.2021 03:50 9,3 C 17,1 C 10,0 C 9,5 C 9,5 C 0,2 C 87 % 93 % 1016,0 hPa 0,0 l/m 0,0 km/h (0 Bft) SW 225 0 min 7,2 C 9,5 C 0,0 km/h (0 Bft)
26.09.2021 03:55 9,3 C 17,1 C 10,1 C 9,6 C 9,6 C 0,3 C 87 % 93 % 1016,2 hPa 0,0 l/m 0,0 km/h (0 Bft) SW 225 0 min 7,2 C 9,6 C 0,0 km/h (0 Bft)
26.09.2021 04:00 9,2 C 17,0 C 10,0 C 9,4 C 9,4 C 0,2 C 87 % 93 % 1016,2 hPa 0,0 l/m 0,0 km/h (0 Bft) SW 225 0 min 7,2 C 9,4 C 0,0 km/h (0 Bft)
26.09.2021 04:05 9,2 C 17,1 C 10,0 C 9,3 C 9,3 C 0,1 C 88 % 93 % 1016,2 hPa 0,0 l/m 0,0 km/h (0 Bft) SW 225 0 min 7,3 C 9,3 C 0,0 km/h (0 Bft)
26.09.2021 04:10 9,1 C 17,0 C 10,0 C 9,4 C 9,4 C 0,3 C 87 % 93 % 1016,2 hPa 0,0 l/m 0,0 km/h (0 Bft) SW 225 0 min 7,1 C 9,4 C 0,0 km/h (0 Bft)
26.09.2021 04:15 9,1 C 17,0 C 9,9 C 9,6 C 9,6 C 0,5 C 87 % 93 % 1016,3 hPa 0,0 l/m 0,0 km/h (0 Bft) SW 225 0 min 7,1 C 9,6 C 0,0 km/h (0 Bft)
26.09.2021 04:20 9,1 C 17,0 C 9,9 C 9,5 C 9,5 C 0,4 C 87 % 93 % 1016,3 hPa 0,0 l/m 0,0 km/h (0 Bft) SW 225 0 min 7,1 C 9,5 C 0,0 km/h (0 Bft)
26.09.2021 04:25 9,1 C 17,0 C 9,9 C 9,3 C 9,3 C 0,2 C 87 % 93 % 1016,3 hPa 0,0 l/m 0,0 km/h (0 Bft) SW 225 0 min 7,1 C 9,3 C 0,0 km/h (0 Bft)
26.09.2021 04:30 9,0 C 17,0 C 9,9 C 9,1 C 9,1 C 0,1 C 88 % 93 % 1016,3 hPa 0,0 l/m 0,0 km/h (0 Bft) SW 225 0 min 7,1 C 9,1 C 0,0 km/h (0 Bft)
26.09.2021 04:35 8,9 C 16,9 C 9,8 C 9,0 C 9,0 C 0,1 C 87 % 93 % 1016,7 hPa 0,0 l/m 0,0 km/h (0 Bft) SW 225 0 min 6,9 C 9,0 C 0,0 km/h (0 Bft)
26.09.2021 04:40 8,8 C 16,9 C 9,9 C 9,1 C 9,1 C 0,3 C 88 % 93 % 1016,7 hPa 0,0 l/m 0,0 km/h (0 Bft) SW 225 0 min 6,9 C 9,1 C 0,0 km/h (0 Bft)
26.09.2021 04:45 8,8 C 16,9 C 9,9 C 9,3 C 9,3 C 0,5 C 88 % 93 % 1016,7 hPa 0,0 l/m 0,0 km/h (0 Bft) SW 225 0 min 6,9 C 9,3 C 0,0 km/h (0 Bft)
26.09.2021 04:50 8,8 C 16,9 C 9,9 C 9,3 C 9,3 C 0,5 C 88 % 93 % 1016,7 hPa 0,0 l/m 0,0 km/h (0 Bft) SW 225 0 min 6,9 C 9,3 C 0,0 km/h (0 Bft)
26.09.2021 04:55 8,7 C 16,9 C 9,9 C 9,2 C 9,2 C 0,5 C 88 % 93 % 1016,6 hPa 0,0 l/m 0,0 km/h (0 Bft) SW 225 0 min 6,8 C 9,2 C 0,0 km/h (0 Bft)
26.09.2021 05:00 8,7 C 16,9 C 9,9 C 9,3 C 9,3 C 0,6 C 88 % 93 % 1016,6 hPa 0,0 l/m 0,0 km/h (0 Bft) SW 225 0 min 6,8 C 9,3 C 0,0 km/h (0 Bft)
26.09.2021 05:05 8,7 C 16,9 C 9,9 C 9,5 C 9,5 C 0,8 C 88 % 93 % 1016,6 hPa 0,0 l/m 0,0 km/h (0 Bft) SW 225 0 min 6,8 C 9,5 C 0,0 km/h (0 Bft)
26.09.2021 05:10 8,7 C 16,9 C 9,9 C 9,4 C 9,4 C 0,7 C 88 % 93 % 1016,6 hPa 0,0 l/m 0,0 km/h (0 Bft) SW 225 0 min 6,8 C 9,4 C 0,0 km/h (0 Bft)
26.09.2021 05:15 8,7 C 16,9 C 9,7 C 9,1 C 9,1 C 0,4 C 88 % 93 % 1016,5 hPa 0,0 l/m 0,0 km/h (0 Bft) SW 225 0 min 6,8 C 9,1 C 0,0 km/h (0 Bft)
26.09.2021 05:20 8,6 C 16,9 C 9,7 C 9,1 C 9,1 C 0,5 C 88 % 93 % 1016,5 hPa 0,0 l/m 0,0 km/h (0 Bft) SW 225 0 min 6,7 C 9,1 C 0,0 km/h (0 Bft)
26.09.2021 05:25 8,5 C 16,9 C 9,7 C 9,1 C 9,1 C 0,6 C 88 % 93 % 1016,5 hPa 0,0 l/m 0,0 km/h (0 Bft) SW 225 0 min 6,6 C 9,1 C 0,0 km/h (0 Bft)
26.09.2021 05:30 8,5 C 16,8 C 9,6 C 9,0 C 9,0 C 0,5 C 88 % 93 % 1016,5 hPa 0,0 l/m 0,0 km/h (0 Bft) SW 225 0 min 6,6 C 9,0 C 0,0 km/h (0 Bft)
26.09.2021 05:35 8,4 C 16,8 C 9,6 C 9,0 C 9,0 C 0,6 C 88 % 93 % 1016,6 hPa 0,0 l/m 0,0 km/h (0 Bft) SW 225 0 min 6,5 C 9,0 C 0,0 km/h (0 Bft)
26.09.2021 05:40 8,4 C 16,8 C 9,7 C 9,2 C 9,2 C 0,8 C 88 % 93 % 1016,6 hPa 0,0 l/m 0,0 km/h (0 Bft) SW 225 0 min 6,5 C 9,2 C 0,0 km/h (0 Bft)
26.09.2021 05:45 8,5 C 16,8 C 9,7 C 9,4 C 9,4 C 0,9 C 88 % 93 % 1016,6 hPa 0,0 l/m 0,0 km/h (0 Bft) SW 225 0 min 6,6 C 9,4 C 0,0 km/h (0 Bft)
26.09.2021 05:50 8,4 C 16,8 C 9,7 C 9,3 C 9,3 C 0,9 C 88 % 93 % 1016,6 hPa 0,0 l/m 0,0 km/h (0 Bft) SW 225 0 min 6,5 C 9,3 C 0,0 km/h (0 Bft)
26.09.2021 05:55 8,4 C 16,8 C 9,7 C 9,3 C 9,3 C 0,9 C 88 % 93 % 1016,4 hPa 0,0 l/m 0,0 km/h (0 Bft) SW 225 0 min 6,5 C 9,3 C 0,0 km/h (0 Bft)
26.09.2021 06:00 8,5 C 16,8 C 9,7 C 9,2 C 9,2 C 0,7 C 88 % 93 % 1016,4 hPa 0,0 l/m 0,0 km/h (0 Bft) SW 225 0 min 6,6 C 9,2 C 0,0 km/h (0 Bft)
26.09.2021 06:05 8,4 C 16,7 C 9,6 C 9,0 C 9,0 C 0,6 C 88 % 93 % 1016,4 hPa 0,0 l/m 0,0 km/h (0 Bft) SW 225 0 min 6,5 C 9,0 C 0,0 km/h (0 Bft)
26.09.2021 06:10 8,3 C 16,7 C 9,5 C 8,8 C 8,8 C 0,5 C 88 % 93 % 1016,4 hPa 0,0 l/m 0,0 km/h (0 Bft) SW 225 0 min 6,4 C 8,8 C 0,0 km/h (0 Bft)
26.09.2021 06:15 8,3 C 16,7 C 9,4 C 8,8 C 8,8 C 0,5 C 88 % 93 % 1016,2 hPa 0,0 l/m 0,0 km/h (0 Bft) SW 225 0 min 6,4 C 8,8 C 0,0 km/h (0 Bft)
26.09.2021 06:20 8,2 C 16,7 C 9,5 C 8,9 C 8,9 C 0,7 C 88 % 93 % 1016,2 hPa 0,0 l/m 0,0 km/h (0 Bft) SW 225 0 min 6,3 C 8,9 C 0,0 km/h (0 Bft)
26.09.2021 06:25 8,3 C 16,7 C 9,5 C 9,0 C 9,0 C 0,7 C 88 % 93 % 1016,2 hPa 0,0 l/m 0,0 km/h (0 Bft) SW 225 0 min 6,4 C 9,0 C 0,0 km/h (0 Bft)
26.09.2021 06:30 8,2 C 16,7 C 9,6 C 9,0 C 9,0 C 0,8 C 88 % 93 % 1016,2 hPa 0,0 l/m 0,0 km/h (0 Bft) SW 225 0 min 6,3 C 9,0 C 0,0 km/h (0 Bft)
26.09.2021 06:35 8,3 C 16,7 C 9,7 C 9,1 C 9,1 C 0,8 C 88 % 93 % 1016,4 hPa 0,0 l/m 0,0 km/h (0 Bft) SW 225 0 min 6,4 C 9,1 C 0,0 km/h (0 Bft)
26.09.2021 06:40 8,3 C 16,7 C 9,7 C 9,3 C 9,3 C 1,0 C 88 % 93 % 1016,4 hPa 0,0 l/m 0,0 km/h (0 Bft) SW 225 0 min 6,4 C 9,3 C 0,0 km/h (0 Bft)
26.09.2021 06:45 8,3 C 16,7 C 9,7 C 9,3 C 9,3 C 1,0 C 88 % 93 % 1016,4 hPa 0,0 l/m 0,0 km/h (0 Bft) SW 225 0 min 6,4 C 9,3 C 0,0 km/h (0 Bft)
26.09.2021 06:50 8,2 C 16,6 C 9,5 C 9,2 C 9,2 C 1,0 C 88 % 93 % 1016,4 hPa 0,0 l/m 0,0 km/h (0 Bft) SW 225 0 min 6,3 C 9,2 C 0,0 km/h (0 Bft)
26.09.2021 06:55 8,1 C 16,6 C 9,5 C 9,1 C 9,1 C 1,0 C 88 % 93 % 1016,3 hPa 0,0 l/m 0,0 km/h (0 Bft) SW 225 0 min 6,2 C 9,1 C 0,0 km/h (0 Bft)
26.09.2021 07:00 8,1 C 16,6 C 9,5 C 9,2 C 9,2 C 1,1 C 88 % 93 % 1016,3 hPa 0,0 l/m 0,0 km/h (0 Bft) SW 225 0 min 6,2 C 9,2 C 0,0 km/h (0 Bft)
26.09.2021 07:05 8,1 C 16,6 C 9,6 C 9,3 C 9,3 C 1,2 C 88 % 93 % 1016,3 hPa 0,0 l/m 0,0 km/h (0 Bft) SW 225 0 min 6,2 C 9,3 C 0,0 km/h (0 Bft)
26.09.2021 07:10 8,1 C 16,6 C 9,6 C 9,4 C 9,4 C 1,3 C 88 % 93 % 1016,3 hPa 0,0 l/m 0,0 km/h (0 Bft) SW 225 0 min 6,2 C 9,4 C 0,0 km/h (0 Bft)
26.09.2021 07:15 8,1 C 16,6 C 9,7 C 9,5 C 9,5 C 1,4 C 88 % 93 % 1016,4 hPa 0,0 l/m 0,0 km/h (0 Bft) SW 225 5 min 6,2 C 9,5 C 0,0 km/h (0 Bft)
26.09.2021 07:20 8,2 C 16,6 C 9,8 C 9,6 C 9,6 C 1,4 C 88 % 93 % 1016,4 hPa 0,0 l/m 0,0 km/h (0 Bft) SW 225 5 min 6,3 C 9,6 C 0,0 km/h (0 Bft)
26.09.2021 07:25 8,3 C 16,6 C 9,9 C 9,8 C 9,8 C 1,5 C 88 % 93 % 1016,4 hPa 0,0 l/m 0,0 km/h (0 Bft) SW 225 5 min 6,4 C 9,8 C 0,0 km/h (0 Bft)
26.09.2021 07:30 8,3 C 16,6 C 9,9 C 9,9 C 9,9 C 1,6 C 88 % 93 % 1016,4 hPa 0,0 l/m 0,0 km/h (0 Bft) SW 225 5 min 6,4 C 9,9 C 0,0 km/h (0 Bft)
26.09.2021 07:35 8,4 C 16,6 C 10,1 C 10,1 C 10,1 C 1,7 C 88 % 94 % 1016,5 hPa 0,0 l/m 0,0 km/h (0 Bft) SW 225 5 min 6,5 C 10,1 C 0,0 km/h (0 Bft)
26.09.2021 07:40 8,5 C 16,6 C 10,2 C 10,4 C 10,4 C 1,9 C 88 % 94 % 1016,5 hPa 0,0 l/m 0,0 km/h (0 Bft) SW 225 5 min 6,6 C 10,4 C 0,0 km/h (0 Bft)
26.09.2021 07:45 8,6 C 16,6 C 10,3 C 10,7 C 10,7 C 2,1 C 88 % 93 % 1016,5 hPa 0,0 l/m 0,0 km/h (0 Bft) SW 225 5 min 6,7 C 10,7 C 0,0 km/h (0 Bft)
26.09.2021 07:50 8,8 C 16,6 C 10,4 C 10,9 C 10,9 C 2,1 C 88 % 94 % 1016,5 hPa 0,0 l/m 0,0 km/h (0 Bft) SW 225 5 min 6,9 C 10,9 C 0,0 km/h (0 Bft)
26.09.2021 07:55 9,0 C 16,6 C 10,6 C 11,7 C 11,7 C 2,7 C 88 % 94 % 1016,3 hPa 0,0 l/m 0,0 km/h (0 Bft) SW 225 5 min 7,1 C 11,7 C 0,0 km/h (0 Bft)
26.09.2021 08:00 9,0 C 16,6 C 10,6 C 11,9 C 11,9 C 2,9 C 88 % 93 % 1016,3 hPa 0,0 l/m 0,0 km/h (0 Bft) SW 225 5 min 7,1 C 11,9 C 0,0 km/h (0 Bft)
26.09.2021 08:05 9,2 C 16,6 C 10,8 C 12,6 C 12,6 C 3,4 C 88 % 94 % 1016,3 hPa 0,0 l/m 0,0 km/h (0 Bft) SW 225 5 min 7,3 C 12,6 C 0,0 km/h (0 Bft)
26.09.2021 08:10 9,5 C 16,6 C 10,9 C 12,7 C 12,7 C 3,2 C 88 % 94 % 1016,3 hPa 0,0 l/m 0,0 km/h (0 Bft) SW 225 5 min 7,6 C 12,7 C 0,0 km/h (0 Bft)
26.09.2021 08:15 9,4 C 16,5 C 10,8 C 12,4 C 12,4 C 3,0 C 88 % 94 % 1016,2 hPa 0,0 l/m 0,0 km/h (0 Bft) SW 225 5 min 7,5 C 12,4 C 0,0 km/h (0 Bft)
26.09.2021 08:20 9,5 C 16,6 C 10,9 C 12,2 C 12,2 C 2,7 C 88 % 94 % 1016,2 hPa 0,0 l/m 0,0 km/h (0 Bft) SW 225 5 min 7,6 C 12,2 C 0,0 km/h (0 Bft)
26.09.2021 08:25 9,7 C 16,6 C 11,3 C 12,2 C 12,2 C 2,5 C 88 % 94 % 1016,2 hPa 0,0 l/m 0,5 km/h (0 Bft) SW 225 5 min 7,8 C 12,2 C 0,0 km/h (0 Bft)
26.09.2021 08:30 10,0 C 16,6 C 11,5 C 12,3 C 12,3 C 2,3 C 88 % 94 % 1016,2 hPa 0,0 l/m 0,5 km/h (0 Bft) SW 225 5 min 8,1 C 12,3 C 0,0 km/h (0 Bft)
26.09.2021 08:35 10,3 C 16,6 C 11,6 C 12,6 C 12,6 C 2,3 C 88 % 94 % 1016,2 hPa 0,0 l/m 0,0 km/h (0 Bft) SW 225 0 min 8,4 C 12,6 C 0,0 km/h (0 Bft)
26.09.2021 08:40 10,3 C 16,6 C 11,6 C 12,7 C 12,7 C 2,4 C 88 % 94 % 1016,2 hPa 0,0 l/m 0,0 km/h (0 Bft) SW 225 0 min 8,4 C 12,7 C 0,0 km/h (0 Bft)
26.09.2021 08:45 10,3 C 16,6 C 11,6 C 12,6 C 12,6 C 2,3 C 88 % 94 % 1016,2 hPa 0,0 l/m 0,0 km/h (0 Bft) SW 225 0 min 8,4 C 12,6 C 0,0 km/h (0 Bft)
26.09.2021 08:50 10,3 C 16,6 C 11,7 C 12,9 C 12,9 C 2,6 C 88 % 94 % 1016,2 hPa 0,0 l/m 0,0 km/h (0 Bft) SW 225 0 min 8,4 C 12,9 C 0,0 km/h (0 Bft)
26.09.2021 08:55 10,5 C 16,6 C 11,9 C 13,3 C 13,3 C 2,8 C 88 % 94 % 1016,4 hPa 0,0 l/m 0,0 km/h (0 Bft) SW 225 0 min 8,6 C 13,3 C 0,0 km/h (0 Bft)
26.09.2021 09:00 10,7 C 16,6 C 12,0 C 13,6 C 13,6 C 2,9 C 88 % 94 % 1016,4 hPa 0,0 l/m 0,0 km/h (0 Bft) SW 225 0 min 8,8 C 13,6 C 0,0 km/h (0 Bft)
26.09.2021 09:05 10,8 C 16,6 C 12,3 C 14,1 C 14,1 C 3,3 C 88 % 94 % 1016,4 hPa 0,0 l/m 0,0 km/h (0 Bft) SW 225 5 min 8,9 C 14,1 C 0,0 km/h (0 Bft)
26.09.2021 09:10 11,0 C 16,6 C 12,4 C 14,3 C 14,3 C 3,3 C 88 % 94 % 1016,4 hPa 0,0 l/m 0,0 km/h (0 Bft) SW 225 5 min 9,1 C 14,3 C 0,0 km/h (0 Bft)
26.09.2021 09:15 11,3 C 16,6 C 12,9 C 14,8 C 14,8 C 3,5 C 88 % 94 % 1016,2 hPa 0,0 l/m 0,0 km/h (0 Bft) SW 225 5 min 9,4 C 14,8 C 0,0 km/h (0 Bft)
26.09.2021 09:20 11,6 C 16,6 C 13,0 C 15,0 C 15,0 C 3,4 C 88 % 94 % 1016,2 hPa 0,0 l/m 0,0 km/h (0 Bft) SW 225 5 min 9,7 C 15,0 C 0,0 km/h (0 Bft)
26.09.2021 09:25 11,9 C 16,5 C 13,2 C 15,1 C 15,1 C 3,2 C 88 % 94 % 1016,2 hPa 0,0 l/m 0,0 km/h (0 Bft) SW 225 0 min 10,0 C 15,1 C 0,0 km/h (0 Bft)
26.09.2021 09:30 12,0 C 16,4 C 13,3 C 15,1 C 15,1 C 3,1 C 88 % 93 % 1016,2 hPa 0,0 l/m 0,0 km/h (0 Bft) SW 225 0 min 10,1 C 15,1 C 0,0 km/h (0 Bft)
26.09.2021 09:35 12,2 C 16,4 C 13,4 C 15,2 C 15,2 C 3,0 C 88 % 94 % 1016,5 hPa 0,0 l/m 0,0 km/h (0 Bft) SW 225 0 min 10,3 C 15,2 C 0,0 km/h (0 Bft)
26.09.2021 09:40 12,3 C 16,3 C 13,6 C 15,3 C 15,3 C 3,0 C 88 % 94 % 1016,5 hPa 0,0 l/m 0,0 km/h (0 Bft) SW 225 0 min 10,4 C 15,3 C 0,0 km/h (0 Bft)
26.09.2021 09:45 12,5 C 16,4 C 13,8 C 15,4 C 15,4 C 2,9 C 88 % 94 % 1016,5 hPa 0,0 l/m 0,0 km/h (0 Bft) SW 225 0 min 10,6 C 15,4 C 0,0 km/h (0 Bft)
26.09.2021 09:50 12,6 C 16,3 C 14,0 C 15,3 C 15,3 C 2,7 C 88 % 94 % 1016,5 hPa 0,0 l/m 0,0 km/h (0 Bft) SW 225 0 min 10,7 C 15,3 C 0,0 km/h (0 Bft)
26.09.2021 09:55 12,8 C 16,4 C 14,2 C 15,5 C 15,5 C 2,7 C 88 % 93 % 1016,3 hPa 0,0 l/m 0,0 km/h (0 Bft) SW 225 0 min 10,9 C 15,5 C 0,0 km/h (0 Bft)
26.09.2021 10:00 13,0 C 16,3 C 14,3 C 16,0 C 16,0 C 3,0 C 88 % 93 % 1016,3 hPa 0,0 l/m 0,0 km/h (0 Bft) SW 225 0 min 11,1 C 16,0 C 0,0 km/h (0 Bft)
26.09.2021 10:05 13,3 C 16,3 C 14,5 C 17,1 C 17,1 C 3,8 C 88 % 93 % 1016,3 hPa 0,0 l/m 0,0 km/h (0 Bft) SW 225 5 min 11,4 C 17,1 C 0,0 km/h (0 Bft)
26.09.2021 10:10 13,5 C 16,2 C 14,7 C 17,5 C 17,5 C 4,0 C 89 % 93 % 1016,3 hPa 0,0 l/m 0,0 km/h (0 Bft) SW 225 5 min 11,7 C 17,5 C 0,0 km/h (0 Bft)
26.09.2021 10:15 13,7 C 16,2 C 15,0 C 17,5 C 17,5 C 3,8 C 89 % 93 % 1016,6 hPa 0,0 l/m 0,0 km/h (0 Bft) SW 225 5 min 11,9 C 17,5 C 0,0 km/h (0 Bft)
26.09.2021 10:20 13,9 C 16,3 C 15,0 C 17,6 C 17,6 C 3,7 C 89 % 93 % 1016,6 hPa 0,0 l/m 0,0 km/h (0 Bft) SW 225 5 min 12,1 C 17,6 C 0,0 km/h (0 Bft)
26.09.2021 10:25 14,2 C 16,4 C 15,3 C 17,7 C 17,7 C 3,5 C 89 % 93 % 1016,6 hPa 0,0 l/m 0,0 km/h (0 Bft) SW 225 5 min 12,4 C 17,7 C 0,0 km/h (0 Bft)
26.09.2021 10:30 14,5 C 16,2 C 15,5 C 17,9 C 17,9 C 3,4 C 88 % 93 % 1016,6 hPa 0,0 l/m 0,2 km/h (0 Bft) W 270 5 min 12,5 C 17,9 C 1,8 km/h (1 Bft)
26.09.2021 10:35 14,9 C 16,2 C 15,8 C 18,3 C 18,3 C 3,4 C 88 % 93 % 1016,6 hPa 0,0 l/m 0,2 km/h (0 Bft) W 270 5 min 12,9 C 18,3 C 0,0 km/h (0 Bft)
26.09.2021 10:40 15,1 C 16,2 C 16,0 C 18,5 C 18,5 C 3,4 C 88 % 93 % 1016,6 hPa 0,0 l/m 0,2 km/h (0 Bft) O-NO 67 5 min 13,1 C 18,5 C 0,0 km/h (0 Bft)
26.09.2021 10:45 15,2 C 16,2 C 16,2 C 19,2 C 19,2 C 4,0 C 88 % 92 % 1016,6 hPa 0,0 l/m 0,2 km/h (0 Bft) O-NO 67 5 min 13,2 C 19,2 C 2,7 km/h (1 Bft)
26.09.2021 10:50 15,5 C 16,2 C 16,4 C 19,4 C 19,4 C 3,9 C 88 % 92 % 1016,6 hPa 0,0 l/m 0,2 km/h (0 Bft) O-NO 67 5 min 13,5 C 19,4 C 0,0 km/h (0 Bft)
26.09.2021 10:55 16,1 C 16,3 C 16,8 C 19,7 C 19,7 C 3,6 C 88 % 92 % 1016,5 hPa 0,0 l/m 1,0 km/h (0 Bft) O-NO 67 5 min 14,1 C 19,7 C 4,2 km/h (1 Bft)
26.09.2021 11:00 16,5 C 16,3 C 17,1 C 19,8 C 19,8 C 3,3 C 89 % 91 % 1016,5 hPa 0,0 l/m 1,9 km/h (1 Bft) O-NO 67 5 min 14,7 C 19,8 C 4,7 km/h (1 Bft)
26.09.2021 11:05 17,2 C 16,2 C 17,6 C 20,2 C 20,2 C 3,0 C 88 % 90 % 1016,5 hPa 0,0 l/m 2,6 km/h (1 Bft) O-NO 67 0 min 15,2 C 20,2 C 0,0 km/h (0 Bft)
26.09.2021 11:10 17,3 C 16,3 C 17,6 C 20,4 C 20,4 C 3,1 C 87 % 90 % 1016,5 hPa 0,0 l/m 2,4 km/h (1 Bft) O-NO 67 0 min 15,1 C 20,4 C 3,2 km/h (1 Bft)
26.09.2021 11:15 17,5 C 16,3 C 17,8 C 20,7 C 20,7 C 3,2 C 87 % 89 % 1016,4 hPa 0,0 l/m 1,1 km/h (1 Bft) O-NO 67 0 min 15,3 C 20,7 C 1,8 km/h (1 Bft)
26.09.2021 11:20 17,7 C 16,3 C 18,1 C 20,9 C 20,9 C 3,2 C 87 % 89 % 1016,4 hPa 0,0 l/m 0,6 km/h (0 Bft) NO 45 0 min 15,5 C 20,9 C 0,0 km/h (0 Bft)
26.09.2021 11:25 18,1 C 16,3 C 18,2 C 21,3 C 21,3 C 3,2 C 87 % 88 % 1016,4 hPa 0,0 l/m 0,5 km/h (0 Bft) O-NO 67 0 min 15,9 C 21,3 C 2,1 km/h (1 Bft)
26.09.2021 11:30 18,5 C 16,3 C 18,5 C 21,6 C 21,6 C 3,1 C 86 % 88 % 1016,4 hPa 0,0 l/m 1,1 km/h (1 Bft) O 90 0 min 16,1 C 21,6 C 0,0 km/h (0 Bft)
26.09.2021 11:35 19,6 C 16,3 C 18,7 C 22,2 C 22,2 C 2,6 C 86 % 87 % 1016,1 hPa 0,0 l/m 1,1 km/h (1 Bft) NO 45 0 min 17,2 C 22,2 C 2,1 km/h (1 Bft)
26.09.2021 11:40 20,1 C 16,3 C 18,7 C 22,4 C 22,4 C 2,3 C 86 % 86 % 1016,1 hPa 0,0 l/m 0,5 km/h (0 Bft) NO 45 0 min 17,7 C 22,4 C 0,0 km/h (0 Bft)
26.09.2021 11:45 20,7 C 16,3 C 19,1 C 22,6 C 22,6 C 1,9 C 84 % 85 % 1016,1 hPa 0,0 l/m 0,6 km/h (0 Bft) O-NO 67 0 min 17,9 C 22,6 C 2,7 km/h (1 Bft)
26.09.2021 11:50 20,8 C 16,3 C 19,3 C 22,8 C 22,8 C 2,0 C 82 % 85 % 1016,1 hPa 0,0 l/m 0,3 km/h (0 Bft) S 180 0 min 17,6 C 22,8 C 0,0 km/h (0 Bft)
26.09.2021 11:55 20,9 C 16,3 C 19,3 C 23,1 C 23,1 C 2,2 C 81 % 85 % 1016,2 hPa 0,0 l/m 0,2 km/h (0 Bft) S-SW 202 0 min 17,5 C 23,1 C 0,0 km/h (0 Bft)
26.09.2021 12:00 21,1 C 16,2 C 19,4 C 23,3 C 23,3 C 2,2 C 80 % 85 % 1016,2 hPa 0,0 l/m 0,0 km/h (0 Bft) S 180 0 min 17,5 C 23,3 C 0,0 km/h (0 Bft)
26.09.2021 12:05 21,2 C 16,3 C 19,6 C 23,6 C 23,6 C 2,4 C 79 % 85 % 1016,2 hPa 0,0 l/m 0,0 km/h (0 Bft) S 180 0 min 17,4 C 23,6 C 0,0 km/h (0 Bft)
26.09.2021 12:10 21,4 C 16,3 C 20,0 C 23,7 C 23,7 C 2,3 C 78 % 84 % 1016,2 hPa 0,0 l/m 0,0 km/h (0 Bft) S 180 0 min 17,4 C 23,7 C 0,0 km/h (0 Bft)
26.09.2021 12:15 21,6 C 16,3 C 20,9 C 24,0 C 24,0 C 2,4 C 77 % 83 % 1016,2 hPa 0,0 l/m 0,0 km/h (0 Bft) W-SW 247 0 min 17,4 C 24,0 C 0,0 km/h (0 Bft)
26.09.2021 12:20 21,9 C 16,3 C 21,7 C 24,3 C 24,3 C 2,4 C 76 % 81 % 1016,2 hPa 0,0 l/m 0,0 km/h (0 Bft) W-SW 247 0 min 17,5 C 24,3 C 0,0 km/h (0 Bft)
26.09.2021 12:25 22,1 C 16,3 C 21,7 C 24,7 C 24,7 C 2,6 C 75 % 79 % 1016,2 hPa 0,0 l/m 0,0 km/h (0 Bft) SW 225 0 min 17,5 C 24,7 C 0,0 km/h (0 Bft)
26.09.2021 12:30 22,1 C 16,3 C 21,4 C 24,8 C 24,8 C 2,7 C 74 % 78 % 1016,2 hPa 0,0 l/m 0,0 km/h (0 Bft) SW 225 0 min 17,2 C 24,8 C 0,0 km/h (0 Bft)
26.09.2021 12:35 22,3 C 16,4 C 21,0 C 24,8 C 24,8 C 2,5 C 73 % 79 % 1016,0 hPa 0,0 l/m 0,0 km/h (0 Bft) NO 45 0 min 17,2 C 24,8 C 0,0 km/h (0 Bft)
26.09.2021 12:40 22,4 C 16,4 C 20,8 C 24,7 C 24,7 C 2,3 C 73 % 79 % 1016,0 hPa 0,0 l/m 0,0 km/h (0 Bft) NO 45 0 min 17,3 C 24,7 C 0,0 km/h (0 Bft)
26.09.2021 12:45 22,5 C 16,4 C 20,7 C 25,6 C 25,6 C 3,1 C 74 % 79 % 1016,0 hPa 0,0 l/m 0,0 km/h (0 Bft) O-SO 112 0 min 17,6 C 25,6 C 0,0 km/h (0 Bft)
26.09.2021 12:50 22,7 C 16,4 C 20,6 C 26,1 C 26,1 C 3,4 C 73 % 79 % 1016,0 hPa 0,0 l/m 0,0 km/h (0 Bft) O-SO 112 5 min 17,6 C 26,1 C 0,0 km/h (0 Bft)
26.09.2021 12:55 22,8 C 16,5 C 20,6 C 26,2 C 26,2 C 3,4 C 73 % 80 % 1015,9 hPa 0,0 l/m 0,0 km/h (0 Bft) W-SW 247 5 min 17,7 C 26,2 C 0,0 km/h (0 Bft)
26.09.2021 13:00 23,1 C 16,5 C 20,7 C 26,4 C 26,4 C 3,3 C 73 % 80 % 1015,9 hPa 0,0 l/m 0,0 km/h (0 Bft) W-SW 247 5 min 18,0 C 26,4 C 0,0 km/h (0 Bft)
26.09.2021 13:05 23,2 C 16,5 C 20,8 C 26,7 C 26,7 C 3,5 C 72 % 80 % 1015,9 hPa 0,0 l/m 0,0 km/h (0 Bft) W-SW 247 5 min 17,9 C 26,7 C 0,0 km/h (0 Bft)
26.09.2021 13:10 23,2 C 16,5 C 20,8 C 26,7 C 26,7 C 3,5 C 72 % 80 % 1015,9 hPa 0,0 l/m 0,0 km/h (0 Bft) W-SW 247 5 min 17,9 C 26,7 C 0,0 km/h (0 Bft)
26.09.2021 13:15 23,7 C 16,5 C 21,3 C 27,8 C 27,8 C 4,1 C 69 % 78 % 1015,4 hPa 0,0 l/m 0,0 km/h (0 Bft) W-SW 247 5 min 17,7 C 27,8 C 0,0 km/h (0 Bft)
26.09.2021 13:20 23,8 C 16,5 C 21,3 C 29,4 C 29,4 C 5,6 C 69 % 78 % 1015,4 hPa 0,0 l/m 0,0 km/h (0 Bft) S-SW 202 5 min 17,8 C 29,4 C 0,0 km/h (0 Bft)
26.09.2021 13:25 24,1 C 16,5 C 21,2 C 30,8 C 30,8 C 6,7 C 69 % 78 % 1015,4 hPa 0,0 l/m 0,0 km/h (0 Bft) SW 225 5 min 18,0 C 30,8 C 0,0 km/h (0 Bft)
26.09.2021 13:30 24,3 C 16,6 C 21,3 C 31,5 C 31,5 C 7,2 C 68 % 78 % 1015,4 hPa 0,0 l/m 0,0 km/h (0 Bft) S-SW 202 5 min 18,0 C 31,5 C 0,0 km/h (0 Bft)
26.09.2021 13:35 24,2 C 16,5 C 21,7 C 31,3 C 31,3 C 7,1 C 67 % 77 % 1015,4 hPa 0,0 l/m 0,6 km/h (0 Bft) W 270 5 min 17,7 C 31,3 C 0,0 km/h (0 Bft)
26.09.2021 13:40 24,2 C 16,5 C 21,7 C 31,3 C 31,3 C 7,1 C 67 % 77 % 1015,4 hPa 0,0 l/m 0,6 km/h (0 Bft) W 270 5 min 17,7 C 31,3 C 0,0 km/h (0 Bft)
26.09.2021 13:45 24,3 C 16,5 C 21,7 C 32,0 C 32,0 C 7,7 C 67 % 77 % 1015,4 hPa 0,0 l/m 0,0 km/h (0 Bft) W 270 5 min 17,8 C 32,0 C 0,0 km/h (0 Bft)
26.09.2021 13:50 24,4 C 16,6 C 21,9 C 32,3 C 32,3 C 7,9 C 67 % 76 % 1015,4 hPa 0,0 l/m 0,0 km/h (0 Bft) W 270 5 min 17,9 C 32,3 C 0,0 km/h (0 Bft)
26.09.2021 13:55 24,5 C 16,6 C 21,9 C 32,7 C 32,7 C 8,2 C 66 % 76 % 1015,1 hPa 0,0 l/m 0,0 km/h (0 Bft) W-SW 247 5 min 17,7 C 32,7 C 0,0 km/h (0 Bft)
26.09.2021 14:00 24,7 C 16,6 C 22,3 C 32,7 C 32,7 C 8,0 C 66 % 75 % 1015,1 hPa 0,0 l/m 0,0 km/h (0 Bft) S 180 5 min 17,9 C 32,7 C 0,0 km/h (0 Bft)
26.09.2021 14:05 24,7 C 16,6 C 22,3 C 32,6 C 32,6 C 7,9 C 66 % 75 % 1015,1 hPa 0,0 l/m 0,0 km/h (0 Bft) SW 225 5 min 17,9 C 32,6 C 0,0 km/h (0 Bft)
26.09.2021 14:10 24,7 C 16,6 C 22,2 C 32,0 C 32,0 C 7,3 C 65 % 74 % 1015,1 hPa 0,0 l/m 0,0 km/h (0 Bft) SW 225 5 min 17,7 C 32,0 C 0,0 km/h (0 Bft)
26.09.2021 14:15 24,7 C 16,7 C 21,9 C 30,0 C 30,0 C 5,3 C 65 % 74 % 1014,9 hPa 0,0 l/m 0,0 km/h (0 Bft) S 180 5 min 17,7 C 30,0 C 0,0 km/h (0 Bft)
26.09.2021 14:20 24,7 C 16,7 C 22,0 C 29,7 C 29,7 C 5,0 C 66 % 76 % 1014,9 hPa 0,0 l/m 0,0 km/h (0 Bft) S 180 5 min 17,9 C 29,7 C 0,0 km/h (0 Bft)
26.09.2021 14:25 24,8 C 16,7 C 22,2 C 31,2 C 31,2 C 6,4 C 65 % 76 % 1014,9 hPa 0,0 l/m 0,0 km/h (0 Bft) SO 135 5 min 17,8 C 31,2 C 0,0 km/h (0 Bft)
26.09.2021 14:30 24,9 C 16,7 C 22,3 C 31,7 C 31,7 C 6,8 C 64 % 74 % 1014,9 hPa 0,0 l/m 0,2 km/h (0 Bft) NW 315 5 min 17,6 C 31,7 C 0,0 km/h (0 Bft)
26.09.2021 14:35 24,8 C 16,8 C 22,5 C 31,5 C 31,5 C 6,7 C 64 % 74 % 1014,5 hPa 0,0 l/m 0,8 km/h (0 Bft) O-NO 67 5 min 17,5 C 31,5 C 2,9 km/h (1 Bft)
26.09.2021 14:40 24,8 C 16,8 C 22,5 C 31,1 C 31,1 C 6,3 C 64 % 73 % 1014,5 hPa 0,0 l/m 0,8 km/h (0 Bft) O 90 5 min 17,5 C 31,1 C 0,0 km/h (0 Bft)
26.09.2021 14:45 24,7 C 16,8 C 22,5 C 31,5 C 31,5 C 6,8 C 64 % 73 % 1014,5 hPa 0,0 l/m 0,3 km/h (0 Bft) O-NO 67 5 min 17,4 C 31,5 C 0,0 km/h (0 Bft)
26.09.2021 14:50 24,6 C 16,8 C 22,6 C 31,3 C 31,3 C 6,7 C 64 % 72 % 1014,5 hPa 0,0 l/m 0,5 km/h (0 Bft) O-NO 67 5 min 17,3 C 31,3 C 0,0 km/h (0 Bft)
26.09.2021 14:55 24,7 C 16,9 C 22,6 C 31,4 C 31,4 C 6,7 C 64 % 73 % 1014,4 hPa 0,0 l/m 0,5 km/h (0 Bft) O-NO 67 5 min 17,4 C 31,4 C 0,0 km/h (0 Bft)
26.09.2021 15:00 24,7 C 16,9 C 22,7 C 31,6 C 31,6 C 6,9 C 64 % 72 % 1014,4 hPa 0,0 l/m 0,2 km/h (0 Bft) S-SO 157 5 min 17,4 C 31,6 C 1,6 km/h (1 Bft)
26.09.2021 15:05 24,8 C 16,9 C 22,8 C 31,7 C 31,7 C 6,9 C 65 % 73 % 1014,4 hPa 0,0 l/m 0,5 km/h (0 Bft) N-NW 337 5 min 17,8 C 31,7 C 1,9 km/h (1 Bft)
26.09.2021 15:10 24,8 C 16,9 C 23,0 C 31,8 C 31,8 C 7,0 C 65 % 72 % 1014,4 hPa 0,0 l/m 0,6 km/h (0 Bft) S 180 5 min 17,8 C 31,8 C 0,0 km/h (0 Bft)
26.09.2021 15:15 25,0 C 16,9 C 23,0 C 31,7 C 31,7 C 6,7 C 65 % 73 % 1013,9 hPa 0,0 l/m 0,5 km/h (0 Bft) W-SW 247 5 min 17,9 C 31,7 C 0,0 km/h (0 Bft)
26.09.2021 15:20 25,1 C 17,0 C 23,0 C 31,7 C 31,7 C 6,6 C 65 % 73 % 1013,9 hPa 0,0 l/m 0,2 km/h (0 Bft) W-SW 247 5 min 18,0 C 31,7 C 0,0 km/h (0 Bft)
26.09.2021 15:25 25,1 C 17,0 C 23,1 C 31,7 C 31,7 C 6,6 C 64 % 73 % 1013,9 hPa 0,0 l/m 0,2 km/h (0 Bft) SW 225 5 min 17,8 C 31,7 C 0,0 km/h (0 Bft)
26.09.2021 15:30 25,2 C 17,0 C 23,1 C 31,5 C 31,5 C 6,3 C 64 % 73 % 1013,9 hPa 0,0 l/m 0,0 km/h (0 Bft) SW 225 5 min 17,9 C 31,5 C 0,0 km/h (0 Bft)
26.09.2021 15:35 25,2 C 17,0 C 23,1 C 31,5 C 31,5 C 6,3 C 64 % 73 % 1014,1 hPa 0,0 l/m 0,0 km/h (0 Bft) W-SW 247 5 min 17,9 C 31,5 C 0,0 km/h (0 Bft)
26.09.2021 15:40 25,3 C 17,1 C 23,1 C 31,5 C 31,5 C 6,2 C 64 % 73 % 1014,1 hPa 0,0 l/m 0,0 km/h (0 Bft) W-SW 247 5 min 18,0 C 31,5 C 0,0 km/h (0 Bft)
26.09.2021 15:45 25,5 C 17,1 C 23,2 C 31,7 C 31,7 C 6,2 C 64 % 73 % 1014,1 hPa 0,0 l/m 0,0 km/h (0 Bft) W-SW 247 5 min 18,2 C 31,7 C 0,0 km/h (0 Bft)
26.09.2021 15:50 25,5 C 17,1 C 23,3 C 31,5 C 31,5 C 6,0 C 64 % 73 % 1014,1 hPa 0,0 l/m 0,0 km/h (0 Bft) W-SW 247 5 min 18,2 C 31,5 C 0,0 km/h (0 Bft)
26.09.2021 15:55 25,4 C 17,1 C 23,1 C 31,5 C 31,5 C 6,1 C 63 % 73 % 1013,9 hPa 0,0 l/m 0,0 km/h (0 Bft) W-SW 247 5 min 17,8 C 31,5 C 0,0 km/h (0 Bft)
26.09.2021 16:00 25,5 C 17,1 C 23,1 C 31,5 C 31,5 C 6,0 C 64 % 74 % 1013,9 hPa 0,0 l/m 0,0 km/h (0 Bft) N-NW 337 5 min 18,2 C 31,5 C 0,0 km/h (0 Bft)
26.09.2021 16:05 25,4 C 17,2 C 23,1 C 30,8 C 30,8 C 5,4 C 64 % 74 % 1013,9 hPa 0,0 l/m 0,2 km/h (0 Bft) N-NO 22 5 min 18,1 C 30,8 C 1,6 km/h (1 Bft)
26.09.2021 16:10 25,4 C 17,2 C 23,1 C 29,9 C 29,9 C 4,5 C 63 % 73 % 1013,9 hPa 0,0 l/m 0,2 km/h (0 Bft) N-NO 22 5 min 17,8 C 29,9 C 0,0 km/h (0 Bft)
26.09.2021 16:15 25,3 C 17,2 C 23,1 C 28,6 C 28,6 C 3,3 C 63 % 73 % 1013,3 hPa 0,0 l/m 0,2 km/h (0 Bft) N-NO 22 5 min 17,7 C 28,6 C 0,0 km/h (0 Bft)
26.09.2021 16:20 25,2 C 17,2 C 23,4 C 28,2 C 28,2 C 3,0 C 63 % 71 % 1013,3 hPa 0,0 l/m 0,2 km/h (0 Bft) N-NO 22 0 min 17,6 C 28,2 C 0,0 km/h (0 Bft)
26.09.2021 16:25 25,3 C 17,2 C 23,3 C 27,7 C 27,7 C 2,4 C 63 % 72 % 1013,3 hPa 0,0 l/m 0,0 km/h (0 Bft) N-NO 22 0 min 17,7 C 27,7 C 0,0 km/h (0 Bft)
26.09.2021 16:30 25,3 C 17,3 C 23,4 C 27,5 C 27,5 C 2,2 C 64 % 73 % 1013,3 hPa 0,0 l/m 0,0 km/h (0 Bft) N-NO 22 0 min 18,0 C 27,5 C 0,0 km/h (0 Bft)
26.09.2021 16:35 25,3 C 17,3 C 23,3 C 27,3 C 27,3 C 2,0 C 63 % 72 % 1013,6 hPa 0,0 l/m 0,0 km/h (0 Bft) S-SO 157 0 min 17,7 C 27,3 C 0,0 km/h (0 Bft)
26.09.2021 16:40 25,3 C 17,3 C 23,4 C 27,2 C 27,2 C 1,9 C 63 % 72 % 1013,6 hPa 0,0 l/m 0,0 km/h (0 Bft) S-SO 157 0 min 17,7 C 27,2 C 0,0 km/h (0 Bft)
26.09.2021 16:45 25,5 C 17,3 C 23,4 C 27,3 C 27,3 C 1,8 C 63 % 71 % 1013,6 hPa 0,0 l/m 0,0 km/h (0 Bft) S-SO 157 0 min 17,9 C 27,3 C 0,0 km/h (0 Bft)
26.09.2021 16:50 25,5 C 17,3 C 23,3 C 27,3 C 27,3 C 1,8 C 63 % 72 % 1013,6 hPa 0,0 l/m 0,0 km/h (0 Bft) S-SO 157 0 min 17,9 C 27,3 C 0,0 km/h (0 Bft)
26.09.2021 16:55 25,7 C 17,3 C 23,3 C 27,1 C 27,1 C 1,4 C 64 % 73 % 1013,6 hPa 0,0 l/m 0,0 km/h (0 Bft) W-NW 292 0 min 18,4 C 27,1 C 0,0 km/h (0 Bft)
26.09.2021 17:00 25,7 C 17,4 C 23,2 C 26,8 C 26,8 C 1,1 C 64 % 73 % 1013,6 hPa 0,0 l/m 0,0 km/h (0 Bft) W-NW 292 0 min 18,4 C 26,8 C 0,0 km/h (0 Bft)
26.09.2021 17:05 25,8 C 17,4 C 23,1 C 26,5 C 26,5 C 0,7 C 64 % 74 % 1013,6 hPa 0,0 l/m 0,0 km/h (0 Bft) W-NW 292 0 min 18,5 C 26,5 C 0,0 km/h (0 Bft)
26.09.2021 17:10 26,0 C 17,4 C 22,9 C 26,2 C 26,2 C 0,2 C 64 % 73 % 1013,6 hPa 0,0 l/m 0,0 km/h (0 Bft) W-NW 292 0 min 18,6 C 26,2 C 0,0 km/h (0 Bft)
26.09.2021 17:15 26,1 C 17,4 C 22,7 C 26,0 C 25,9 C 0,0 C 64 % 74 % 1013,7 hPa 0,0 l/m 0,0 km/h (0 Bft) W-NW 292 0 min 18,7 C 25,9 C 0,0 km/h (0 Bft)
26.09.2021 17:20 26,0 C 17,4 C 22,7 C 25,9 C 25,7 C 0,0 C 64 % 75 % 1013,7 hPa 0,0 l/m 0,0 km/h (0 Bft) W-NW 292 0 min 18,6 C 25,7 C 0,0 km/h (0 Bft)
26.09.2021 17:25 25,9 C 17,5 C 22,6 C 25,8 C 25,5 C 0,0 C 64 % 75 % 1013,7 hPa 0,0 l/m 0,0 km/h (0 Bft) W-NW 292 0 min 18,6 C 25,5 C 0,0 km/h (0 Bft)
26.09.2021 17:30 25,6 C 17,5 C 22,6 C 25,5 C 25,3 C 0,0 C 64 % 75 % 1013,7 hPa 0,0 l/m 0,0 km/h (0 Bft) W-NW 292 0 min 18,3 C 25,3 C 0,0 km/h (0 Bft)
26.09.2021 17:35 25,3 C 17,5 C 22,5 C 25,2 C 25,0 C 0,0 C 66 % 75 % 1012,9 hPa 0,0 l/m 0,0 km/h (0 Bft) W-NW 292 0 min 18,5 C 25,0 C 0,0 km/h (0 Bft)
26.09.2021 17:40 25,0 C 17,5 C 22,4 C 24,9 C 24,8 C 0,0 C 67 % 75 % 1012,9 hPa 0,0 l/m 0,0 km/h (0 Bft) W-NW 292 0 min 18,4 C 24,8 C 0,0 km/h (0 Bft)
26.09.2021 17:45 24,8 C 17,5 C 22,3 C 24,7 C 24,6 C 0,0 C 67 % 76 % 1012,9 hPa 0,0 l/m 0,0 km/h (0 Bft) W-NW 292 0 min 18,2 C 24,6 C 0,0 km/h (0 Bft)
26.09.2021 17:50 24,8 C 17,5 C 22,1 C 24,7 C 24,6 C 0,0 C 68 % 76 % 1012,9 hPa 0,0 l/m 0,0 km/h (0 Bft) W-NW 292 0 min 18,5 C 24,6 C 0,0 km/h (0 Bft)
26.09.2021 17:55 24,7 C 17,5 C 22,0 C 24,6 C 24,3 C 0,0 C 69 % 78 % 1013,1 hPa 0,0 l/m 0,0 km/h (0 Bft) W-NW 292 0 min 18,6 C 24,3 C 0,0 km/h (0 Bft)
26.09.2021 18:00 24,5 C 17,6 C 21,9 C 24,4 C 24,2 C 0,0 C 69 % 78 % 1013,1 hPa 0,0 l/m 0,0 km/h (0 Bft) W-NW 292 0 min 18,4 C 24,2 C 0,0 km/h (0 Bft)
26.09.2021 18:05 24,2 C 17,6 C 21,7 C 24,1 C 23,8 C 0,0 C 70 % 79 % 1013,1 hPa 0,0 l/m 0,0 km/h (0 Bft) W-NW 292 0 min 18,4 C 23,8 C 0,0 km/h (0 Bft)
26.09.2021 18:10 24,0 C 17,6 C 21,5 C 23,9 C 23,6 C 0,0 C 71 % 80 % 1013,1 hPa 0,0 l/m 0,0 km/h (0 Bft) W-NW 292 0 min 18,4 C 23,6 C 0,0 km/h (0 Bft)
26.09.2021 18:15 23,6 C 17,6 C 21,3 C 23,5 C 23,2 C 0,0 C 72 % 81 % 1013,1 hPa 0,0 l/m 0,0 km/h (0 Bft) NW 315 0 min 18,2 C 23,2 C 0,0 km/h (0 Bft)
26.09.2021 18:20 23,5 C 17,7 C 21,2 C 23,3 C 23,0 C 0,0 C 73 % 81 % 1013,1 hPa 0,0 l/m 0,0 km/h (0 Bft) NW 315 0 min 18,4 C 23,0 C 0,0 km/h (0 Bft)
26.09.2021 18:25 23,2 C 17,7 C 20,9 C 23,0 C 22,5 C 0,0 C 74 % 82 % 1013,1 hPa 0,0 l/m 0,0 km/h (0 Bft) NW 315 0 min 18,3 C 22,5 C 0,0 km/h (0 Bft)
26.09.2021 18:30 23,1 C 17,7 C 20,8 C 22,8 C 22,2 C 0,0 C 75 % 82 % 1013,1 hPa 0,0 l/m 0,0 km/h (0 Bft) NW 315 0 min 18,4 C 22,2 C 0,0 km/h (0 Bft)
26.09.2021 18:35 22,6 C 17,8 C 20,6 C 22,3 C 21,8 C 0,0 C 76 % 83 % 1013,1 hPa 0,0 l/m 0,0 km/h (0 Bft) O-NO 67 0 min 18,1 C 21,8 C 0,0 km/h (0 Bft)
26.09.2021 18:40 22,5 C 17,8 C 20,4 C 22,2 C 21,6 C 0,0 C 76 % 83 % 1013,1 hPa 0,0 l/m 0,0 km/h (0 Bft) O-NO 67 0 min 18,0 C 21,6 C 0,0 km/h (0 Bft)
26.09.2021 18:45 22,2 C 17,8 C 20,2 C 21,9 C 21,2 C 0,0 C 76 % 84 % 1013,1 hPa 0,0 l/m 0,0 km/h (0 Bft) O-NO 67 0 min 17,8 C 21,2 C 0,0 km/h (0 Bft)
26.09.2021 18:50 22,0 C 17,8 C 20,0 C 21,6 C 20,9 C 0,0 C 76 % 84 % 1013,1 hPa 0,0 l/m 0,0 km/h (0 Bft) O-NO 67 0 min 17,6 C 20,9 C 0,0 km/h (0 Bft)
26.09.2021 18:55 21,7 C 17,8 C 19,7 C 21,3 C 20,5 C 0,0 C 76 % 83 % 1013,6 hPa 0,0 l/m 0,0 km/h (0 Bft) O-NO 67 0 min 17,3 C 20,5 C 0,0 km/h (0 Bft)
26.09.2021 19:00 21,4 C 17,8 C 19,5 C 21,1 C 20,4 C 0,0 C 76 % 84 % 1013,6 hPa 0,0 l/m 0,0 km/h (0 Bft) O-NO 67 0 min 17,0 C 20,4 C 0,0 km/h (0 Bft)
26.09.2021 19:05 21,1 C 17,8 C 19,3 C 20,8 C 20,1 C 0,0 C 77 % 84 % 1013,6 hPa 0,0 l/m 0,0 km/h (0 Bft) O-NO 67 0 min 16,9 C 20,1 C 0,0 km/h (0 Bft)
26.09.2021 19:10 20,9 C 17,8 C 19,3 C 20,6 C 19,9 C 0,0 C 77 % 84 % 1013,6 hPa 0,0 l/m 0,0 km/h (0 Bft) O-NO 67 0 min 16,7 C 19,9 C 0,0 km/h (0 Bft)
26.09.2021 19:15 20,7 C 17,8 C 19,0 C 20,3 C 19,5 C 0,0 C 77 % 84 % 1012,9 hPa 0,0 l/m 0,0 km/h (0 Bft) O-NO 67 0 min 16,5 C 19,5 C 0,0 km/h (0 Bft)
26.09.2021 19:20 20,5 C 17,8 C 18,9 C 20,1 C 19,4 C 0,0 C 77 % 84 % 1012,9 hPa 0,0 l/m 0,0 km/h (0 Bft) O-NO 67 0 min 16,3 C 19,4 C 0,0 km/h (0 Bft)
26.09.2021 19:25 20,3 C 17,8 C 18,7 C 19,9 C 19,1 C 0,0 C 77 % 84 % 1012,9 hPa 0,0 l/m 0,0 km/h (0 Bft) O-NO 67 0 min 16,1 C 19,1 C 0,0 km/h (0 Bft)
26.09.2021 19:30 20,0 C 17,8 C 18,7 C 19,6 C 18,9 C 0,0 C 77 % 84 % 1012,9 hPa 0,0 l/m 0,0 km/h (0 Bft) O-NO 67 0 min 15,8 C 18,9 C 0,0 km/h (0 Bft)
26.09.2021 19:35 19,9 C 17,8 C 18,5 C 19,5 C 18,7 C 0,0 C 78 % 84 % 1013,3 hPa 0,0 l/m 0,0 km/h (0 Bft) O-NO 67 0 min 15,9 C 18,7 C 0,0 km/h (0 Bft)
26.09.2021 19:40 19,7 C 17,8 C 18,5 C 19,3 C 18,5 C 0,0 C 78 % 85 % 1013,3 hPa 0,0 l/m 0,0 km/h (0 Bft) O-NO 67 0 min 15,8 C 18,5 C 0,0 km/h (0 Bft)
26.09.2021 19:45 19,6 C 17,9 C 18,4 C 19,2 C 18,4 C 0,0 C 80 % 86 % 1013,3 hPa 0,0 l/m 0,0 km/h (0 Bft) O-NO 67 0 min 16,1 C 18,4 C 0,0 km/h (0 Bft)
26.09.2021 19:50 19,5 C 17,9 C 18,3 C 19,1 C 18,3 C 0,0 C 80 % 86 % 1013,3 hPa 0,0 l/m 0,0 km/h (0 Bft) O-NO 67 0 min 16,0 C 18,3 C 0,0 km/h (0 Bft)
26.09.2021 19:55 19,4 C 17,9 C 18,3 C 19,1 C 18,5 C 0,0 C 81 % 86 % 1013,2 hPa 0,0 l/m 0,0 km/h (0 Bft) N 360 0 min 16,1 C 18,5 C 0,0 km/h (0 Bft)
26.09.2021 20:00 19,4 C 17,9 C 18,2 C 19,1 C 18,5 C 0,0 C 81 % 86 % 1013,2 hPa 0,0 l/m 0,0 km/h (0 Bft) N-NO 22 0 min 16,1 C 18,5 C 0,0 km/h (0 Bft)
26.09.2021 20:05 19,2 C 17,9 C 17,9 C 18,9 C 18,4 C 0,0 C 80 % 86 % 1013,2 hPa 0,0 l/m 0,0 km/h (0 Bft) N-NO 22 0 min 15,7 C 18,4 C 0,0 km/h (0 Bft)
26.09.2021 20:10 19,1 C 17,9 C 17,7 C 18,8 C 18,3 C 0,0 C 80 % 86 % 1013,2 hPa 0,0 l/m 0,0 km/h (0 Bft) N-NO 22 0 min 15,6 C 18,3 C 0,0 km/h (0 Bft)
26.09.2021 20:15 18,9 C 17,9 C 17,7 C 18,7 C 18,2 C 0,0 C 81 % 87 % 1012,9 hPa 0,0 l/m 0,0 km/h (0 Bft) N-NO 22 0 min 15,6 C 18,2 C 0,0 km/h (0 Bft)
26.09.2021 20:20 18,8 C 17,9 C 17,7 C 18,6 C 18,1 C 0,0 C 81 % 87 % 1012,9 hPa 0,0 l/m 0,0 km/h (0 Bft) N-NO 22 0 min 15,5 C 18,1 C 0,0 km/h (0 Bft)
26.09.2021 20:25 18,6 C 17,9 C 17,6 C 18,4 C 18,0 C 0,0 C 81 % 86 % 1012,9 hPa 0,0 l/m 0,0 km/h (0 Bft) N-NO 22 0 min 15,3 C 18,0 C 0,0 km/h (0 Bft)
26.09.2021 20:30 18,6 C 17,9 C 17,5 C 18,4 C 17,9 C 0,0 C 81 % 87 % 1012,9 hPa 0,0 l/m 0,0 km/h (0 Bft) N-NO 22 0 min 15,3 C 17,9 C 0,0 km/h (0 Bft)
26.09.2021 20:35 18,5 C 18,0 C 17,3 C 18,3 C 17,8 C 0,0 C 82 % 87 % 1013,8 hPa 0,0 l/m 0,0 km/h (0 Bft) N-NO 22 0 min 15,4 C 17,8 C 0,0 km/h (0 Bft)
26.09.2021 20:40 18,3 C 18,0 C 17,2 C 18,1 C 17,7 C 0,0 C 82 % 87 % 1013,8 hPa 0,0 l/m 0,0 km/h (0 Bft) N-NO 22 0 min 15,2 C 17,7 C 0,0 km/h (0 Bft)
26.09.2021 20:45 18,3 C 18,0 C 17,2 C 18,1 C 17,6 C 0,0 C 82 % 87 % 1013,8 hPa 0,0 l/m 0,0 km/h (0 Bft) N-NO 22 0 min 15,2 C 17,6 C 0,0 km/h (0 Bft)
26.09.2021 20:50 18,1 C 18,0 C 17,2 C 17,9 C 17,5 C 0,0 C 82 % 87 % 1013,8 hPa 0,0 l/m 0,0 km/h (0 Bft) N-NO 22 0 min 15,0 C 17,5 C 0,0 km/h (0 Bft)
26.09.2021 20:55 18,0 C 18,0 C 17,1 C 17,8 C 17,4 C 0,0 C 82 % 87 % 1013,7 hPa 0,0 l/m 0,0 km/h (0 Bft) N-NO 22 0 min 14,9 C 17,4 C 0,0 km/h (0 Bft)
26.09.2021 21:00 18,0 C 18,0 C 17,0 C 17,8 C 17,4 C 0,0 C 83 % 87 % 1013,7 hPa 0,0 l/m 0,0 km/h (0 Bft) N-NO 22 0 min 15,1 C 17,4 C 0,0 km/h (0 Bft)
26.09.2021 21:06 17,9 C 18,0 C 16,9 C 17,7 C 17,3 C 0,0 C 83 % 87 % 1013,7 hPa 0,0 l/m 0,0 km/h (0 Bft) N-NO 22 0 min 15,0 C 17,3 C 0,0 km/h (0 Bft)
26.09.2021 21:10 17,8 C 18,0 C 16,8 C 17,6 C 17,2 C 0,0 C 83 % 87 % 1013,7 hPa 0,0 l/m 0,0 km/h (0 Bft) N-NO 22 0 min 14,9 C 17,2 C 0,0 km/h (0 Bft)
26.09.2021 21:15 17,6 C 18,1 C 16,7 C 17,4 C 17,0 C 0,0 C 83 % 87 % 1013,8 hPa 0,0 l/m 0,0 km/h (0 Bft) N-NO 22 0 min 14,7 C 17,0 C 0,0 km/h (0 Bft)
26.09.2021 21:20 17,6 C 18,1 C 16,5 C 17,4 C 17,0 C 0,0 C 83 % 88 % 1013,8 hPa 0,0 l/m 0,0 km/h (0 Bft) N-NO 22 0 min 14,7 C 17,0 C 0,0 km/h (0 Bft)
26.09.2021 21:25 17,4 C 18,0 C 16,5 C 17,3 C 17,0 C 0,0 C 83 % 88 % 1013,8 hPa 0,0 l/m 0,0 km/h (0 Bft) N-NO 22 0 min 14,5 C 17,0 C 0,0 km/h (0 Bft)
26.09.2021 21:30 17,4 C 18,0 C 16,5 C 17,3 C 17,0 C 0,0 C 83 % 88 % 1013,8 hPa 0,0 l/m 0,0 km/h (0 Bft) N-NO 22 0 min 14,5 C 17,0 C 0,0 km/h (0 Bft)
26.09.2021 21:35 17,3 C 18,0 C 16,4 C 17,2 C 17,0 C 0,0 C 84 % 88 % 1013,4 hPa 0,0 l/m 0,0 km/h (0 Bft) N-NO 22 0 min 14,6 C 17,0 C 0,0 km/h (0 Bft)
26.09.2021 21:40 17,2 C 18,0 C 16,4 C 17,2 C 17,1 C 0,0 C 84 % 88 % 1013,4 hPa 0,0 l/m 0,0 km/h (0 Bft) N-NO 22 0 min 14,5 C 17,1 C 0,0 km/h (0 Bft)
26.09.2021 21:45 17,3 C 18,0 C 16,5 C 17,2 C 17,1 C 0,0 C 84 % 89 % 1013,4 hPa 0,0 l/m 0,0 km/h (0 Bft) N-NO 22 0 min 14,6 C 17,1 C 0,0 km/h (0 Bft)
26.09.2021 21:50 17,3 C 18,1 C 16,4 C 17,2 C 17,1 C 0,0 C 84 % 88 % 1013,4 hPa 0,0 l/m 0,0 km/h (0 Bft) N-NO 22 0 min 14,6 C 17,1 C 0,0 km/h (0 Bft)
26.09.2021 21:55 17,2 C 18,1 C 16,3 C 17,1 C 17,0 C 0,0 C 85 % 89 % 1013,9 hPa 0,0 l/m 0,0 km/h (0 Bft) N-NO 22 0 min 14,7 C 17,0 C 0,0 km/h (0 Bft)
26.09.2021 22:00 17,1 C 18,1 C 16,4 C 17,1 C 17,0 C 0,0 C 85 % 89 % 1013,9 hPa 0,0 l/m 0,0 km/h (0 Bft) N-NO 22 0 min 14,6 C 17,0 C 0,0 km/h (0 Bft)
26.09.2021 22:05 17,1 C 18,1 C 16,3 C 17,0 C 16,7 C 0,0 C 85 % 90 % 1013,9 hPa 0,0 l/m 0,0 km/h (0 Bft) N-NO 22 0 min 14,6 C 16,7 C 0,0 km/h (0 Bft)
26.09.2021 22:10 17,1 C 18,2 C 16,4 C 16,9 C 16,6 C 0,0 C 85 % 90 % 1013,9 hPa 0,0 l/m 0,0 km/h (0 Bft) N-NO 22 0 min 14,6 C 16,6 C 0,0 km/h (0 Bft)
26.09.2021 22:15 17,0 C 18,1 C 16,3 C 16,8 C 16,5 C 0,0 C 86 % 90 % 1013,8 hPa 0,0 l/m 0,6 km/h (0 Bft) O-NO 67 0 min 14,6 C 16,5 C 0,0 km/h (0 Bft)
26.09.2021 22:20 17,1 C 18,1 C 16,2 C 16,9 C 16,5 C 0,0 C 86 % 90 % 1013,8 hPa 0,0 l/m 0,6 km/h (0 Bft) O-NO 67 0 min 14,7 C 16,5 C 0,0 km/h (0 Bft)
26.09.2021 22:25 16,9 C 18,1 C 16,2 C 16,7 C 16,4 C 0,0 C 86 % 90 % 1013,8 hPa 0,0 l/m 0,0 km/h (0 Bft) O-NO 67 0 min 14,5 C 16,4 C 0,0 km/h (0 Bft)
26.09.2021 22:30 16,8 C 18,1 C 16,1 C 16,6 C 16,3 C 0,0 C 86 % 90 % 1013,8 hPa 0,0 l/m 0,0 km/h (0 Bft) O-NO 67 0 min 14,4 C 16,3 C 0,0 km/h (0 Bft)
26.09.2021 22:35 16,8 C 18,1 C 16,0 C 16,6 C 16,2 C 0,0 C 86 % 90 % 1013,8 hPa 0,0 l/m 0,0 km/h (0 Bft) O-NO 67 0 min 14,4 C 16,2 C 0,0 km/h (0 Bft)
26.09.2021 22:40 16,7 C 18,2 C 16,0 C 16,5 C 16,1 C 0,0 C 86 % 90 % 1013,8 hPa 0,0 l/m 0,0 km/h (0 Bft) O-NO 67 0 min 14,3 C 16,1 C 0,0 km/h (0 Bft)
26.09.2021 22:45 16,6 C 18,2 C 15,9 C 16,3 C 15,8 C 0,0 C 86 % 90 % 1013,8 hPa 0,0 l/m 0,0 km/h (0 Bft) O-NO 67 0 min 14,2 C 15,8 C 0,0 km/h (0 Bft)
26.09.2021 22:50 16,7 C 18,2 C 15,9 C 16,4 C 15,7 C 0,0 C 86 % 91 % 1013,8 hPa 0,0 l/m 0,0 km/h (0 Bft) O-NO 67 0 min 14,3 C 15,7 C 0,0 km/h (0 Bft)
26.09.2021 22:55 16,5 C 18,2 C 15,8 C 16,3 C 15,8 C 0,0 C 86 % 91 % 1013,7 hPa 0,0 l/m 0,0 km/h (0 Bft) O-NO 67 0 min 14,1 C 15,8 C 0,0 km/h (0 Bft)
26.09.2021 23:00 16,4 C 18,1 C 15,8 C 16,2 C 15,8 C 0,0 C 86 % 91 % 1013,7 hPa 0,0 l/m 0,0 km/h (0 Bft) O-NO 67 0 min 14,1 C 15,8 C 0,0 km/h (0 Bft)
26.09.2021 23:05 16,5 C 18,1 C 15,8 C 16,2 C 15,7 C 0,0 C 86 % 91 % 1013,7 hPa 0,0 l/m 0,0 km/h (0 Bft) O-NO 67 0 min 14,1 C 15,7 C 0,0 km/h (0 Bft)
26.09.2021 23:10 16,4 C 18,1 C 15,8 C 16,2 C 15,7 C 0,0 C 86 % 91 % 1013,7 hPa 0,0 l/m 0,0 km/h (0 Bft) O-NO 67 0 min 14,1 C 15,7 C 0,0 km/h (0 Bft)
26.09.2021 23:15 16,3 C 18,1 C 15,7 C 16,1 C 15,6 C 0,0 C 86 % 91 % 1014,1 hPa 0,0 l/m 0,0 km/h (0 Bft) O-NO 67 0 min 14,0 C 15,6 C 0,0 km/h (0 Bft)
26.09.2021 23:20 16,3 C 18,2 C 15,6 C 16,0 C 15,5 C 0,0 C 87 % 91 % 1014,1 hPa 0,0 l/m 0,0 km/h (0 Bft) O-NO 67 0 min 14,1 C 15,5 C 0,0 km/h (0 Bft)
26.09.2021 23:25 16,2 C 18,1 C 15,5 C 15,9 C 15,4 C 0,0 C 87 % 91 % 1014,1 hPa 0,0 l/m 0,0 km/h (0 Bft) O-NO 67 0 min 14,0 C 15,4 C 0,0 km/h (0 Bft)
26.09.2021 23:30 16,1 C 18,1 C 15,5 C 15,8 C 15,2 C 0,0 C 87 % 91 % 1014,1 hPa 0,0 l/m 0,0 km/h (0 Bft) O-NO 67 0 min 13,9 C 15,2 C 0,0 km/h (0 Bft)
26.09.2021 23:35 16,0 C 18,1 C 15,4 C 15,7 C 15,1 C 0,0 C 86 % 91 % 1013,7 hPa 0,0 l/m 0,0 km/h (0 Bft) O-NO 67 0 min 13,7 C 15,1 C 0,0 km/h (0 Bft)
26.09.2021 23:40 15,9 C 18,1 C 15,3 C 15,6 C 15,1 C 0,0 C 86 % 91 % 1013,7 hPa 0,0 l/m 0,0 km/h (0 Bft) O-NO 67 0 min 13,6 C 15,1 C 0,0 km/h (0 Bft)
26.09.2021 23:45 15,9 C 18,2 C 15,3 C 15,6 C 15,0 C 0,0 C 87 % 91 % 1013,7 hPa 0,0 l/m 0,0 km/h (0 Bft) O-NO 67 0 min 13,7 C 15,0 C 0,0 km/h (0 Bft)
26.09.2021 23:50 15,9 C 18,2 C 15,3 C 15,6 C 15,0 C 0,0 C 87 % 91 % 1013,7 hPa 0,0 l/m 0,0 km/h (0 Bft) O-NO 67 0 min 13,7 C 15,0 C 0,0 km/h (0 Bft)
26.09.2021 23:55 15,7 C 18,2 C 15,3 C 15,5 C 15,0 C 0,0 C 87 % 91 % 1013,6 hPa 0,0 l/m 0,2 km/h (0 Bft) O-NO 67 0 min 13,5 C 15,0 C 2,1 km/h (1 Bft)
_ Min-Zeit 06:55 10:10 06:15 06:10 06:10 00:00 15:55 16:20 17:35 - 00:00 - - - 06:55 06:10 00:00
Minimum _ 8,1 C 16,2 C 9,4 C 8,8 C 8,8 C 0,0 C 63 % 71 % 1012,9 hPa - 0,0 km/h (0 Bft) - - - 6,2 C 8,8 C 0,0 km/h (0 Bft)
_ Max-Zeit 17:15 22:10 16:20 13:55 13:55 13:55 10:10 07:35 04:35 00:00 11:05 - - 07:15 17:15 13:55 11:00
Maximum _ 26,1 C 18,2 C 23,4 C 32,7 C 32,7 C 8,2 C 89 % 94 % 1016,7 hPa 0,0 l/m 2,6 km/h
O-NO (1 Bft)
- - 5 min 18,7 C 32,7 C 4,7 km/h
O-NO (1 Bft)
Durchschnitt _ 16,3 C 17,1 C 15,8 C 17,9 C 17,7 C 1,7 C 81 % 87 % 1015,1 hPa #0,0 l/m 0,1 km/h (0 Bft) O-NO - #6:10 h 12,8 C 17,7 C 0,1 km/h (0 Bft)
2021 www.wetterstation-wechselburg.de